Simultaneous Nadir Overpasses (SNOs) Predictions

Prediction of SNOs near equator between NOAA-19 and NPP Satellite Orbit:

Table of predicted SNOs near equator for the next 14.0 days since TLE Epoch: 11/16/2012
Index Date (NOAA-19) Time (NOAA-19) NOAA-19 Lat,Lon Date (NPP) Time (NPP) NPP Lat,Lon Distance(km) Time Diff (sec)
1 11/16/2012 10:14:04 29.97, 44.88 11/16/2012 10:06:58 29.82, 43.99 87.13 426
2 11/16/2012 11:05:08 -29.96,-147.89 11/16/2012 10:57:39 -29.79,-148.67 78.25 449
3 11/16/2012 11:56:09 29.98, 19.36 11/16/2012 11:48:28 29.82, 18.62 73.42 461
4 11/16/2012 12:47:13 -29.97,-173.41 11/16/2012 12:39:10 -29.85,-174.06 64.59 483
5 11/16/2012 13:38:14 29.98, -6.16 11/16/2012 13:29:59 29.88, -6.77 59.82 495
6 11/16/2012 14:29:18 -29.97, 161.07 11/16/2012 14:20:40 -29.86, 160.56 50.88 518
7 11/16/2012 15:20:19 29.98, -31.68 11/16/2012 15:11:29 29.89, -32.15 46.07 530
8 11/16/2012 16:11:23 -29.97, 135.55 11/16/2012 16:02:11 -29.92, 135.17 37.32 552
9 11/16/2012 17:02:24 29.99, -57.21 11/16/2012 16:52:59 29.89, -57.53 32.52 565
10 11/16/2012 17:53:28 -29.97, 110.03 11/16/2012 17:43:41 -29.92, 109.79 23.54 587
11 11/16/2012 18:44:29 29.99, -82.73 11/16/2012 18:34:30 29.96, -82.92 18.75 599
12 11/28/2012 17:25:17 -29.96, 117.12 11/28/2012 17:18:17 -29.75, 116.18 93.70 420
13 11/28/2012 18:16:18 29.96, -75.64 11/28/2012 18:09:06 29.79, -76.53 88.77 432
14 11/28/2012 19:07:22 -29.96, 91.60 11/28/2012 18:59:48 -29.82, 90.79 80.03 454
15 11/28/2012 19:58:23 29.96,-101.16 11/28/2012 19:50:36 29.80,-101.91 75.08 467
16 11/28/2012 20:49:27 -29.97, 66.08 11/28/2012 20:41:18 -29.82, 65.41 66.32 489
17 11/28/2012 21:40:28 29.97,-126.68 11/28/2012 21:32:07 29.86,-127.30 61.43 501
18 11/28/2012 22:31:32 -29.97, 40.56 11/28/2012 22:22:49 -29.89, 40.02 52.72 523
19 11/28/2012 23:22:33 29.97,-152.20 11/28/2012 23:13:37 29.87,-152.68 47.71 536
20 11/29/2012 00:13:37 -29.97, 15.03 11/29/2012 00:04:19 -29.89, 14.64 38.97 558
21 11/29/2012 01:04:38 29.97,-177.72 11/29/2012 00:55:08 29.93,-178.07 34.17 570
22 11/29/2012 01:55:42 -29.98, -10.49 11/29/2012 01:45:49 -29.90, -10.73 25.49 593
23 11/29/2012 02:41:35 12.04, 161.29 11/29/2012 02:31:35 12.17, 160.97 36.67 600
